Tracking 25707 objects as of 29-Jun-2022
HD Live streaming from Space Station
objects crossing your sky now

BLOCK DM-SL R/B

Track BLOCK DM-SL R/B now!


NORAD ID: 29350
Int'l Code: 2006-034B
Perigee: 2,927.9 km
Apogee: 35,498.4 km
Inclination: 1.1 °
Period: 678.8 minutes
Semi major axis: 25584 km
RCS: 20.125 m2 (large)
Launch date: August 22, 2006
Source: Sea Launch (SEAL)
Launch site: SEA LAUNCH (SEAL)

Note: This is a ROCKET BODY
aabbcc
Your satellite tracking list
Your tracking list is empty




NASA's NSSDC Master Catalog

Two Line Element Set (TLE):
1 29350U 06034B   22179.81508001 -.00000111  00000-0  00000-0 0  9990
2 29350   1.0863 352.7557 6365358 174.3350 240.4166  2.12151799122861
Source of the keplerian elements: AFSPC